• In Germany
  • List of Countries
  • For 7 days
  • Water Temperature
  • Satellite Maps
  • Weather Map
  • Weather Widgets
  • user-avatar
    Login

    Hourly Weather Ibagué

    Today, 25 September, Monday

    Time Temperature Precipitation Wind Pressure Humidity
    00:00 +20°C° 0.4 mm 1 mps 649 mmHg 69%
    01:00 +20°C° 0.4 mm 1 mps 649 mmHg 74%
    02:00 +19°C° 0.9 mm 1 mps 649 mmHg 78%
    03:00 +19°C° 0.9 mm 1 mps 649 mmHg 81%
    04:00 +19°C° 0.9 mm 1 mps 648 mmHg 84%
    05:00 +19°C° 0.7 mm 1 mps 649 mmHg 83%
    06:00 +19°C° 0.7 mm 1 mps 649 mmHg 81%
    07:00 +20°C° 0.7 mm 1 mps 649 mmHg 80%
    08:00 +21°C° 0.5 mm 1 mps 650 mmHg 73%
    09:00 +23°C° 0.5 mm 2 mps 650 mmHg 67%
    10:00 +24°C° 0.5 mm 2 mps 651 mmHg 60%
    11:00 +26°C° 0.1 mm 3 mps 650 mmHg 54%
    12:00 +28°C° 0.1 mm 3 mps 650 mmHg 49%
    13:00 +29°C° 0.1 mm 3 mps 650 mmHg 43%
    14:00 +29°C° 0.1 mm 3 mps 649 mmHg 44%
    15:00 +28°C° 0.1 mm 2 mps 649 mmHg 45%
    16:00 +28°C° 0.1 mm 2 mps 648 mmHg 47%
    17:00 +26°C° 0.2 mm 2 mps 648 mmHg 52%
    18:00 +24°C° 0.2 mm 2 mps 648 mmHg 57%
    19:00 +21°C° 0.2 mm 2 mps 648 mmHg 62%
    20:00 +22°C° 0.1 mm 1 mps 649 mmHg 62%
    21:00 +21°C° 0.1 mm 1 mps 649 mmHg 62%
    22:00 +21°C° 0.1 mm 1 mps 649 mmHg 62%
    23:00 +21°C° 0 mm 1 mps 649 mmHg 62%

    Tomorrow, 26 September, Tuesday

    Time Temperature Precipitation Wind Pressure Humidity
    00:00 +20°C° 0 mm 1 mps 649 mmHg 62%
    01:00 +20°C° 0 mm 1 mps 648 mmHg 63%
    02:00 +20°C° 0.1 mm 1 mps 648 mmHg 64%
    03:00 +19°C° 0.1 mm 1 mps 648 mmHg 64%
    04:00 +19°C° 0.1 mm 1 mps 648 mmHg 65%
    05:00 +20°C° 0 mm 1 mps 648 mmHg 64%
    06:00 +18°C° 0 mm 0 mps 649 mmHg 63%
    07:00 +19°C° 0 mm 0 mps 649 mmHg 62%
    08:00 +23°C° 0 mm 1 mps 650 mmHg 55%
    09:00 +25°C° 0 mm 1 mps 650 mmHg 49%
    10:00 +27°C° 0 mm 2 mps 651 mmHg 42%
    11:00 +28°C° 0 mm 2 mps 650 mmHg 39%
    12:00 +29°C° 0 mm 2 mps 650 mmHg 36%
    13:00 +30°C° 0 mm 2 mps 649 mmHg 34%
    14:00 +30°C° 0 mm 2 mps 649 mmHg 34%
    15:00 +29°C° 0 mm 1 mps 648 mmHg 35%
    16:00 +29°C° 0 mm 1 mps 648 mmHg 36%
    17:00 +27°C° 0 mm 1 mps 648 mmHg 41%
    18:00 +25°C° 0 mm 1 mps 648 mmHg 46%
    19:00 +23°C° 0 mm 1 mps 648 mmHg 51%
    20:00 +22°C° 0 mm 1 mps 648 mmHg 49%
    21:00 +22°C° 0 mm 1 mps 649 mmHg 48%
    22:00 +21°C° 0 mm 1 mps 649 mmHg 46%
    23:00 +21°C° 0 mm 1 mps 649 mmHg 46%

    Day after tomorrow, 27 September, Wednesday

    Time Temperature Precipitation Wind Pressure Humidity
    00:00 +21°C° 0 mm 1 mps 649 mmHg 45%
    01:00 +20°C° 0 mm 1 mps 648 mmHg 45%
    02:00 +20°C° 0 mm 1 mps 648 mmHg 46%
    03:00 +20°C° 0 mm 1 mps 647 mmHg 47%
    04:00 +20°C° 0 mm 1 mps 647 mmHg 48%
    05:00 +20°C° 0 mm 1 mps 648 mmHg 49%
    06:00 +21°C° 0 mm 1 mps 648 mmHg 49%
    07:00 +21°C° 0 mm 1 mps 649 mmHg 49%
    08:00 +23°C° 0 mm 1 mps 649 mmHg 46%
    09:00 +25°C° 0 mm 1 mps 650 mmHg 43%
    10:00 +27°C° 0 mm 2 mps 650 mmHg 40%
    11:00 +28°C° 0 mm 2 mps 650 mmHg 38%
    12:00 +29°C° 0 mm 2 mps 649 mmHg 36%
    13:00 +30°C° 0 mm 2 mps 649 mmHg 35%
    14:00 +30°C° 0 mm 2 mps 648 mmHg 36%
    15:00 +29°C° 0 mm 1 mps 648 mmHg 38%
    16:00 +29°C° 0 mm 1 mps 647 mmHg 39%
    17:00 +27°C° 0 mm 1 mps 647 mmHg 46%
    18:00 +25°C° 0 mm 1 mps 647 mmHg 52%
    19:00 +22°C° 0 mm 1 mps 648 mmHg 59%
    20:00 +22°C° 0.1 mm 1 mps 648 mmHg 59%
    21:00 +22°C° 0.1 mm 1 mps 649 mmHg 59%
    22:00 +21°C° 0.1 mm 1 mps 649 mmHg 58%
    23:00 +21°C° 0.1 mm 1 mps 649 mmHg 59%

    28 September, Thursday

    Time Temperature Precipitation Wind Pressure Humidity
    00:00 +21°C° 0.1 mm 1 mps 648 mmHg 60%
    01:00 +20°C° 0.1 mm 1 mps 648 mmHg 60%
    02:00 +20°C° 0.1 mm 1 mps 648 mmHg 62%
    03:00 +20°C° 0.1 mm 1 mps 648 mmHg 63%
    04:00 +20°C° 0.1 mm 1 mps 647 mmHg 65%
    05:00 +20°C° 0.1 mm 1 mps 648 mmHg 64%
    06:00 +19°C° 0.1 mm 0 mps 649 mmHg 63%
    07:00 +19°C° 0.1 mm 0 mps 649 mmHg 63%
    08:00 +23°C° 0 mm 1 mps 650 mmHg 56%
    09:00 +25°C° 0 mm 1 mps 650 mmHg 49%
    10:00 +27°C° 0 mm 1 mps 651 mmHg 43%
    11:00 +28°C° 0 mm 1 mps 650 mmHg 41%
    12:00 +29°C° 0 mm 1 mps 650 mmHg 39%
    13:00 +30°C° 0 mm 2 mps 649 mmHg 37%
    14:00 +29°C° 0 mm 1 mps 648 mmHg 38%
    15:00 +29°C° 0 mm 1 mps 648 mmHg 40%
    16:00 +29°C° 0 mm 1 mps 647 mmHg 42%
    17:00 +27°C° 0 mm 1 mps 648 mmHg 48%
    18:00 +25°C° 0 mm 1 mps 648 mmHg 54%
    19:00 +23°C° 0 mm 1 mps 648 mmHg 61%
    20:00 +22°C° 0.2 mm 1 mps 648 mmHg 63%
    21:00 +22°C° 0.2 mm 1 mps 649 mmHg 64%
    22:00 +21°C° 0.2 mm 1 mps 649 mmHg 66%
    23:00 +21°C° 0.3 mm 1 mps 649 mmHg 67%

    29 September, Friday

    Time Temperature Precipitation Wind Pressure Humidity
    00:00 +21°C° 0.3 mm 1 mps 648 mmHg 68%
    01:00 +18°C° 0.3 mm 0 mps 648 mmHg 69%
    02:00 +18°C° 0 mm 0 mps 648 mmHg 70%
    03:00 +20°C° 0 mm 1 mps 648 mmHg 70%
    04:00 +20°C° 0 mm 1 mps 648 mmHg 71%
    05:00 +18°C° 0 mm 0 mps 648 mmHg 70%
    06:00 +19°C° 0 mm 0 mps 649 mmHg 69%
    07:00 +19°C° 0 mm 0 mps 650 mmHg 68%
    08:00 +20°C° 0.3 mm 0 mps 650 mmHg 64%
    09:00 +24°C° 0.3 mm 1 mps 650 mmHg 61%
    10:00 +25°C° 0.3 mm 1 mps 651 mmHg 58%
    11:00 +26°C° 0.2 mm 1 mps 650 mmHg 55%
    12:00 +26°C° 0.2 mm 1 mps 650 mmHg 52%
    13:00 +27°C° 0.2 mm 1 mps 649 mmHg 50%
    14:00 +27°C° 0 mm 1 mps 648 mmHg 50%
    15:00 +27°C° 0 mm 1 mps 648 mmHg 50%
    16:00 +27°C° 0 mm 1 mps 648 mmHg 50%
    17:00 +25°C° 0.1 mm 1 mps 648 mmHg 54%
    18:00 +24°C° 0.1 mm 1 mps 648 mmHg 59%
    19:00 +22°C° 0.1 mm 1 mps 648 mmHg 64%
    20:00 +22°C° 0.4 mm 1 mps 649 mmHg 65%
    21:00 +22°C° 0.4 mm 1 mps 649 mmHg 65%
    22:00 +21°C° 0.4 mm 1 mps 649 mmHg 66%
    23:00 +21°C° 0 mm 1 mps 649 mmHg 66%

    30 September, Saturday

    Time Temperature Precipitation Wind Pressure Humidity
    00:00 +21°C° 0 mm 1 mps 648 mmHg 67%
    01:00 +20°C° 0 mm 1 mps 648 mmHg 68%
    02:00 +20°C° 0 mm 1 mps 648 mmHg 69%
    03:00 +20°C° 0 mm 1 mps 648 mmHg 69%
    04:00 +20°C° 0 mm 1 mps 648 mmHg 70%
    05:00 +18°C° 0 mm 0 mps 648 mmHg 69%
    06:00 +19°C° 0 mm 0 mps 649 mmHg 68%
    07:00 +19°C° 0 mm 0 mps 649 mmHg 67%
    08:00 +23°C° 0 mm 1 mps 650 mmHg 61%
    09:00 +25°C° 0 mm 1 mps 650 mmHg 55%
    10:00 +26°C° 0 mm 1 mps 651 mmHg 49%
    11:00 +27°C° 0 mm 1 mps 650 mmHg 47%
    12:00 +28°C° 0 mm 2 mps 650 mmHg 45%
    13:00 +28°C° 0 mm 2 mps 649 mmHg 43%
    14:00 +28°C° 0 mm 2 mps 649 mmHg 46%
    15:00 +27°C° 0 mm 2 mps 648 mmHg 49%
    16:00 +27°C° 0 mm 1 mps 648 mmHg 52%
    17:00 +25°C° 0 mm 1 mps 648 mmHg 57%
    18:00 +24°C° 0 mm 1 mps 648 mmHg 63%
    19:00 +20°C° 0 mm 0 mps 648 mmHg 68%
    20:00 +20°C° 0 mm 0 mps 649 mmHg 69%
    21:00 +21°C° 0 mm 1 mps 649 mmHg 70%
    22:00 +21°C° 0 mm 1 mps 649 mmHg 71%
    23:00 +21°C° 0 mm 1 mps 649 mmHg 72%
    Show more